Location: ČR
(50.0000°N, 15.0000°E)
Time: 11:38:13
(UTC+02:00)

A-11 Canister half - Pass Details

Date: 16 March 2026
Orbit: 1514 x 1685 km, 47.2° (Epoch: 16 April)

Event Time Altitude Azimuth Distance (km) Brightness Sun altitude
Rises 21:52:10 0° 286° (WNW) 4,944 12.4 -33.5°
Reaches altitude 10° 21:57:31 10° 264° (W) 3,944 11.5 -34.1°
Maximum altitude 22:01:56 14° 237° (WSW) 3,623 11.0 -34.5°
Enters shadow 22:05:17 12° 216° (SW) 3,784 10.9 -34.9°
Drops below altitude 10° 22:06:21 10° 210° (SSW) 3,903 - -35.0°
Sets 22:11:39 0° 187° (S) 4,855 - -35.5°
